| time (UTC) | temp F | wind direction | speed knots | gust knots | rain 1hr in | rain 24hr in | rain mn in | humidity % | barometer mb |
| 20260505221347 | 77 | 45 | 0.9 | 1.7 | 0.00 | 0.01 | 0.01 | 86 | 1010.9 |
| 20260505220836 | 78 | 45 | 1.7 | 1.7 | 0.00 | 0.01 | 0.01 | 85 | 1011.2 |
| 20260505220326 | 78 | 23 | 1.7 | 1.7 | 0.00 | 0.01 | 0.01 | 85 | 1011.0 |
| 20260505214755 | 78 | 23 | 0.0 | 0.0 | 0.00 | 0.01 | 0.01 | 84 | 1011.4 |
| 20260505214246 | 78 | 23 | 0.0 | 0.0 | 0.00 | 0.01 | 0.01 | 83 | 1011.1 |
| 20260505213225 | 79 | 23 | 0.0 | 1.7 | 0.00 | 0.01 | 0.01 | 81 | 1010.9 |
| 20260505212715 | 80 | 23 | 0.0 | 1.7 | 0.00 | 0.01 | 0.01 | 81 | 1011.1 |
| 20260505212206 | 80 | 23 | 0.0 | 1.7 | 0.00 | 0.01 | 0.01 | 80 | 1010.9 |
| 20260505211655 | 80 | 23 | 0.0 | 3.5 | 0.00 | 0.01 | 0.01 | 79 | 1011.0 |
| 20260505211145 | 81 | 23 | 1.7 | 3.5 | 0.00 | 0.01 | 0.01 | 79 | 1011.0 |
| 20260505210634 | 81 | 23 | 1.7 | 3.5 | 0.00 | 0.01 | 0.01 | 78 | 1010.8 |
| 20260505210124 | 82 | 23 | 2.6 | 5.2 | 0.00 | 0.01 | 0.01 | 77 | 1011.1 |
| 20260505205615 | 82 | 23 | 2.6 | 5.2 | 0.00 | 0.01 | 0.01 | 77 | 1010.8 |
| 20260505204554 | 82 | 68 | 2.6 | 3.5 | 0.00 | 0.01 | 0.01 | 76 | 1010.8 |
| 20260505203535 | 82 | 23 | 1.7 | 5.2 | 0.00 | 0.01 | 0.01 | 77 | 1010.9 |
| 20260505202514 | 83 | 23 | 3.5 | 7.0 | 0.00 | 0.01 | 0.01 | 75 | 1011.2 |
| 20260505202004 | 83 | 45 | 3.5 | 7.0 | 0.00 | 0.01 | 0.01 | 74 | 1011.2 |
| 20260505201453 | 83 | 68 | 3.5 | 6.1 | 0.00 | 0.01 | 0.01 | 74 | 1011.3 |
| 20260505200434 | 84 | 23 | 2.6 | 3.5 | 0.00 | 0.01 | 0.01 | 73 | 1011.1 |
| 20260505195923 | 83 | 23 | 1.7 | 6.1 | 0.00 | 0.01 | 0.01 | 75 | 1011.2 |
| 20260505194903 | 83 | 45 | 2.6 | 6.1 | 0.00 | 0.01 | 0.01 | 74 | 1011.1 |
| 20260505194353 | 84 | 45 | 1.7 | 6.1 | 0.00 | 0.01 | 0.01 | 73 | 1011.0 |
| 20260505193843 | 84 | 23 | 2.6 | 7.0 | 0.00 | 0.01 | 0.01 | 72 | 1011.4 |
| 20260505192823 | 85 | 338 | 2.6 | 5.2 | 0.00 | 0.01 | 0.01 | 71 | 1011.2 |
| 20260505192312 | 84 | 338 | 1.7 | 6.1 | 0.00 | 0.01 | 0.01 | 72 | 1011.3 |
| 20260505191802 | 84 | 0 | 1.7 | 7.8 | 0.00 | 0.01 | 0.01 | 73 | 1011.3 |
| 20260505190742 | 84 | 23 | 3.5 | 7.0 | 0.00 | 0.01 | 0.01 | 73 | 1011.3 |
| 20260505190232 | 84 | 0 | 2.6 | 7.0 | 0.00 | 0.01 | 0.01 | 73 | 1011.3 |
| 20260505185722 | 84 | 315 | 3.5 | 7.8 | 0.00 | 0.01 | 0.01 | 73 | 1011.2 |
| 20260505185211 | 85 | 315 | 3.5 | 9.6 | 0.00 | 0.01 | 0.01 | 71 | 1011.4 |
| 20260505184701 | 84 | 0 | 3.5 | 9.6 | 0.00 | 0.01 | 0.01 | 74 | 1011.2 |
| 20260505184151 | 83 | 45 | 7.0 | 9.6 | 0.00 | 0.01 | 0.01 | 74 | 1011.4 |
| 20260505183131 | 83 | 338 | 5.2 | 9.6 | 0.00 | 0.01 | 0.01 | 73 | 1011.1 |
| 20260505182621 | 83 | 338 | 4.3 | 9.6 | 0.00 | 0.01 | 0.01 | 74 | 1011.2 |
| 20260505182111 | 82 | 338 | 7.0 | 9.6 | 0.00 | 0.01 | 0.01 | 75 | 1011.1 |
| 20260505181601 | 83 | 23 | 5.2 | 9.6 | 0.00 | 0.01 | 0.01 | 74 | 1011.3 |
| 20260505181052 | 83 | 0 | 6.1 | 9.6 | 0.00 | 0.01 | 0.01 | 74 | 1011.0 |
| 20260505180540 | 83 | 338 | 4.3 | 9.6 | 0.00 | 0.01 | 0.01 | 74 | 1011.1 |
| 20260505175520 | 83 | 23 | 2.6 | 7.0 | 0.00 | 0.01 | 0.01 | 76 | 1011.1 |
| 20260505175011 | 82 | 68 | 4.3 | 6.1 | 0.00 | 0.01 | 0.01 | 76 | 1011.1 |
| 20260505174501 | 82 | 23 | 2.6 | 7.8 | 0.00 | 0.01 | 0.01 | 76 | 1011.0 |
| 20260505173950 | 83 | 0 | 3.5 | 7.8 | 0.00 | 0.01 | 0.01 | 75 | 1011.0 |
| 20260505173440 | 83 | 45 | 3.5 | 9.6 | 0.00 | 0.01 | 0.01 | 75 | 1011.2 |
| 20260505172931 | 83 | 23 | 2.6 | 11.3 | 0.00 | 0.01 | 0.01 | 74 | 1011.0 |
| 20260505172420 | 83 | 23 | 6.1 | 11.3 | 0.00 | 0.01 | 0.01 | 75 | 1011.1 |
| 20260505171400 | 83 | 0 | 6.1 | 9.6 | 0.00 | 0.01 | 0.01 | 74 | 1011.2 |
| 20260505170850 | 82 | 23 | 5.2 | 13.0 | 0.00 | 0.01 | 0.01 | 76 | 1011.3 |
| 20260505164809 | 83 | 45 | 10.4 | 14.8 | 0.00 | 0.01 | 0.01 | 74 | 1011.6 |
| 20260505164259 | 83 | 23 | 4.3 | 13.9 | 0.00 | 0.01 | 0.01 | 73 | 1011.6 |
| 20260505163749 | 83 | 338 | 7.0 | 13.9 | 0.00 | 0.01 | 0.01 | 73 | 1011.7 |
| 20260505163244 | 83 | 0 | 7.0 | 13.0 | 0.00 | 0.01 | 0.01 | 74 | 1011.8 |
| 20260505162729 | 82 | 68 | 8.7 | 13.0 | 0.00 | 0.01 | 0.01 | 77 | 1011.7 |
| 20260505162218 | 82 | 45 | 7.8 | 9.6 | 0.00 | 0.01 | 0.01 | 77 | 1011.7 |
| 20260505161158 | 80 | 23 | 7.0 | 11.3 | 0.00 | 0.01 | 0.01 | 79 | 1012.0 |
| 20260505160138 | 80 | 45 | 2.6 | 7.8 | 0.00 | 0.01 | 0.01 | 81 | 1012.3 |
| 20260505153037 | 77 | 23 | 4.3 | 9.6 | 0.00 | 0.01 | 0.01 | 87 | 1012.8 |
| 20260505152527 | 77 | 23 | 3.5 | 7.8 | 0.00 | 0.01 | 0.01 | 87 | 1012.8 |
| 20260505152017 | 77 | 45 | 4.3 | 9.6 | 0.00 | 0.01 | 0.01 | 88 | 1013.1 |
| 20260505151513 | 76 | 90 | 3.5 | 11.3 | 0.00 | 0.01 | 0.01 | 89 | 1013.1 |
| 20260505150957 | 76 | 90 | 4.3 | 11.3 | 0.00 | 0.01 | 0.01 | 90 | 1013.0 |
| 20260505150447 | 76 | 23 | 1.7 | 7.8 | 0.00 | 0.01 | 0.01 | 92 | 1013.2 |
| 20260505140246 | 71 | 23 | 3.5 | 5.2 | 0.01 | 0.01 | 0.01 | 98 | 1013.7 |
| 20260505124514 | 70 | 68 | 1.7 | 7.0 | 0.00 | 0.00 | 0.00 | 98 | 1013.3 |
| 20260505124004 | 69 | 45 | 1.7 | 6.1 | 0.00 | 0.00 | 0.00 | 98 | 1013.5 |
| 20260505122943 | 69 | 90 | 3.5 | 7.0 | 0.00 | 0.00 | 0.00 | 98 | 1013.4 |
| 20260505122433 | 69 | 90 | 3.5 | 7.8 | 0.00 | 0.00 | 0.00 | 99 | 1013.1 |
| 20260505121923 | 69 | 23 | 2.6 | 7.8 | 0.00 | 0.00 | 0.00 | 99 | 1012.9 |
| 20260505121413 | 69 | 90 | 3.5 | 9.6 | 0.00 | 0.00 | 0.00 | 99 | 1013.0 |
| 20260505120903 | 68 | 90 | 4.3 | 9.6 | 0.00 | 0.00 | 0.00 | 99 | 1013.0 |
| 20260505115843 | 68 | 45 | 3.5 | 9.6 | 0.00 | 0.00 | 0.00 | 99 | 1012.8 |
| 20260505115332 | 67 | 90 | 4.3 | 9.6 | 0.00 | 0.00 | 0.00 | 99 | 1013.0 |
| 20260505114823 | 67 | 90 | 3.5 | 11.3 | 0.00 | 0.00 | 0.00 | 99 | 1013.1 |
| 20260505114312 | 67 | 90 | 5.2 | 11.3 | 0.00 | 0.00 | 0.00 | 99 | 1013.0 |
| 20260505113803 | 67 | 90 | 3.5 | 9.6 | 0.00 | 0.00 | 0.00 | 99 | 1013.0 |
| 20260505113253 | 67 | 90 | 3.5 | 9.6 | 0.00 | 0.00 | 0.00 | 99 | 1012.9 |
| 20260505112742 | 67 | 68 | 2.6 | 7.8 | 0.00 | 0.00 | 0.00 | 99 | 1012.9 |
| 20260505112232 | 66 | 90 | 4.3 | 7.8 | 0.00 | 0.00 | 0.00 | 99 | 1012.7 |
| 20260505111722 | 66 | 113 | 4.3 | 7.8 | 0.00 | 0.00 | 0.00 | 99 | 1012.7 |
| 20260505111212 | 66 | 90 | 3.5 | 7.8 | 0.00 | 0.00 | 0.00 | 99 | 1012.8 |
| 20260505110702 | 66 | 68 | 3.5 | 9.6 | 0.00 | 0.00 | 0.00 | 99 | 1012.9 |
| 20260505110151 | 66 | 113 | 3.5 | 9.6 | 0.00 | 0.00 | 0.00 | 99 | 1012.6 |
| 20260505102031 | 66 | 68 | 4.3 | 9.6 | 0.00 | 0.00 | 0.00 | 99 | 1012.5 |
| 20260505101521 | 65 | 68 | 5.2 | 7.8 | 0.00 | 0.00 | 0.00 | 99 | 1012.3 |
| 20260505101010 | 65 | 90 | 1.7 | 7.8 | 0.00 | 0.00 | 0.00 | 99 | 1012.2 |
| 20260505100500 | 65 | 90 | 2.6 | 7.8 | 0.00 | 0.00 | 0.00 | 99 | 1012.2 |
| 20260505095950 | 65 | 68 | 1.7 | 7.8 | 0.00 | 0.00 | 0.00 | 99 | 1012.1 |
| 20260505094930 | 65 | 90 | 1.7 | 9.6 | 0.00 | 0.00 | 0.00 | 99 | 1012.2 |
| 20260505094421 | 65 | 90 | 5.2 | 9.6 | 0.00 | 0.00 | 0.00 | 99 | 1012.0 |
| 20260505093910 | 65 | 68 | 6.1 | 7.8 | 0.00 | 0.00 | 0.00 | 99 | 1011.9 |
| 20260505093400 | 65 | 45 | 4.3 | 7.8 | 0.00 | 0.00 | 0.00 | 99 | 1012.1 |
| 20260505092849 | 65 | 90 | 7.0 | 7.8 | 0.00 | 0.00 | 0.00 | 99 | 1012.0 |
| 20260505092339 | 65 | 90 | 1.7 | 7.0 | 0.00 | 0.00 | 0.00 | 99 | 1012.0 |
| 20260505091829 | 65 | 68 | 4.3 | 7.0 | 0.00 | 0.00 | 0.00 | 99 | 1011.8 |
| 20260505091320 | 65 | 90 | 3.5 | 7.0 | 0.00 | 0.00 | 0.00 | 99 | 1012.0 |
| 20260505090809 | 65 | 113 | 2.6 | 7.0 | 0.00 | 0.00 | 0.00 | 99 | 1012.0 |
| 20260505090259 | 65 | 90 | 4.3 | 7.0 | 0.00 | 0.00 | 0.00 | 99 | 1011.8 |
| 20260505085749 | 65 | 90 | 1.7 | 7.0 | 0.00 | 0.00 | 0.00 | 99 | 1011.9 |
| 20260505085239 | 65 | 113 | 2.6 | 6.1 | 0.00 | 0.00 | 0.00 | 99 | 1011.9 |
| 20260505084218 | 65 | 90 | 4.3 | 7.8 | 0.00 | 0.00 | 0.00 | 99 | 1011.9 |
| 20260505083158 | 65 | 90 | 5.2 | 7.8 | 0.00 | 0.00 | 0.00 | 99 | 1011.8 |
| 20260505082648 | 65 | 90 | 3.5 | 7.8 | 0.00 | 0.00 | 0.00 | 99 | 1011.8 |
| 20260505082138 | 65 | 90 | 3.5 | 7.8 | 0.00 | 0.00 | 0.00 | 99 | 1012.0 |
| 20260505081628 | 66 | 90 | 2.6 | 6.1 | 0.00 | 0.00 | 0.00 | 99 | 1011.7 |
| 20260505081118 | 66 | 90 | 2.6 | 6.1 | 0.00 | 0.00 | 0.00 | 99 | 1011.9 |
| 20260505080608 | 66 | 68 | 2.6 | 7.0 | 0.00 | 0.00 | 0.00 | 99 | 1011.8 |
| 20260505080058 | 66 | 68 | 4.3 | 7.0 | 0.00 | 0.00 | 0.00 | 99 | 1012.0 |
| 20260505075547 | 66 | 90 | 3.5 | 7.0 | 0.00 | 0.00 | 0.00 | 99 | 1011.8 |
| 20260505075037 | 66 | 90 | 4.3 | 7.8 | 0.00 | 0.00 | 0.00 | 99 | 1012.1 |
| 20260505074527 | 66 | 90 | 6.1 | 7.8 | 0.00 | 0.00 | 0.00 | 99 | 1012.0 |
| 20260505074017 | 66 | 90 | 2.6 | 6.1 | 0.00 | 0.00 | 0.00 | 99 | 1011.9 |
| 20260505073507 | 66 | 90 | 3.5 | 6.1 | 0.00 | 0.00 | 0.00 | 99 | 1012.1 |
| 20260505072446 | 66 | 68 | 3.5 | 6.1 | 0.00 | 0.00 | 0.00 | 99 | 1012.1 |
| 20260505071427 | 66 | 90 | 2.6 | 5.2 | 0.00 | 0.00 | 0.00 | 99 | 1012.2 |
| 20260505070917 | 66 | 45 | 1.7 | 5.2 | 0.00 | 0.00 | 0.00 | 99 | 1012.2 |
| 20260505070405 | 66 | 45 | 1.7 | 0.0 | 0.00 | 0.00 | 0.00 | 99 | 1012.2 |
| 20260505070204 | 66 | 45 | 1.7 | 0.0 | 0.00 | 0.00 | 0.00 | 99 | 1012.2 |
| 20260505065801 | 66 | 68 | 1.7 | 6.1 | 0.00 | 0.00 | 0.00 | 99 | 1012.2 |
| 20260505065251 | 66 | 90 | 1.7 | 7.0 | 0.00 | 0.00 | 0.00 | 99 | 1012.2 |
| 20260505064742 | 65 | 45 | 1.7 | 7.0 | 0.00 | 0.00 | 0.00 | 99 | 1012.4 |
| 20260505064231 | 65 | 90 | 3.5 | 7.0 | 0.00 | 0.00 | 0.00 | 99 | 1012.0 |
| 20260505063721 | 66 | 90 | 4.3 | 7.0 | 0.00 | 0.00 | 0.00 | 99 | 1012.0 |
| 20260505063211 | 66 | 90 | 3.5 | 6.1 | 0.00 | 0.00 | 0.00 | 99 | 1012.1 |
| 20260505062701 | 66 | 90 | 3.5 | 6.1 | 0.00 | 0.00 | 0.00 | 99 | 1012.4 |
| 20260505062151 | 66 | 90 | 4.3 | 7.0 | 0.00 | 0.00 | 0.00 | 99 | 1012.2 |
| 20260505061641 | 66 | 90 | 5.2 | 7.0 | 0.00 | 0.00 | 0.00 | 99 | 1012.3 |
| 20260505061130 | 66 | 90 | 2.6 | 5.2 | 0.00 | 0.00 | 0.00 | 99 | 1012.3 |
| 20260505060620 | 66 | 90 | 2.6 | 5.2 | 0.00 | 0.00 | 0.00 | 99 | 1012.5 |
| 20260505060110 | 66 | 68 | 1.7 | 6.1 | 0.00 | 0.00 | 0.00 | 99 | 1012.3 |
| 20260505055600 | 66 | 45 | 1.7 | 6.1 | 0.00 | 0.00 | 0.00 | 99 | 1012.6 |
| 20260505055050 | 66 | 68 | 1.7 | 6.1 | 0.00 | 0.00 | 0.00 | 99 | 1012.2 |
| 20260505054539 | 66 | 90 | 1.7 | 7.8 | 0.00 | 0.00 | 0.00 | 99 | 1012.4 |
| 20260505054030 | 66 | 90 | 2.6 | 7.8 | 0.00 | 0.00 | 0.00 | 99 | 1012.4 |
| 20260505053520 | 66 | 68 | 5.2 | 7.8 | 0.00 | 0.00 | 0.00 | 99 | 1012.0 |
| 20260505053014 | 66 | 113 | 5.2 | 9.6 | 0.00 | 0.00 | 0.00 | 99 | 1012.0 |
| 20260505052459 | 66 | 90 | 4.3 | 9.6 | 0.00 | 0.00 | 0.00 | 99 | 1012.2 |
| 20260505051950 | 66 | 90 | 2.6 | 7.0 | 0.00 | 0.00 | 0.00 | 99 | 1012.0 |
| 20260505051440 | 66 | 90 | 3.5 | 7.0 | 0.00 | 0.00 | 0.00 | 99 | 1012.3 |
| 20260505050929 | 66 | 90 | 3.5 | 6.1 | 0.00 | 0.00 | 0.00 | 99 | 1012.1 |
| 20260505050419 | 66 | 68 | 1.7 | 6.1 | 0.00 | 0.00 | 0.00 | 99 | 1012.5 |
| 20260505041749 | 66 | 45 | 0.0 | 3.5 | 0.00 | 0.00 | 0.00 | 99 | 1012.9 |
| 20260505041238 | 67 | 23 | 1.7 | 3.5 | 0.00 | 0.00 | 0.00 | 99 | 1013.0 |
| 20260505040728 | 66 | 68 | 3.5 | 3.5 | 0.00 | 0.00 | 0.00 | 99 | 1012.8 |
| 20260505040218 | 67 | 68 | 2.6 | 5.2 | 0.00 | 0.00 | 0.00 | 99 | 1012.8 |
| 20260505035707 | 67 | 90 | 3.5 | 5.2 | 0.00 | 0.00 | 0.00 | 99 | 1012.6 |
| 20260505035157 | 67 | 45 | 2.6 | 5.2 | 0.00 | 0.00 | 0.00 | 99 | 1012.9 |
| 20260505034137 | 67 | 90 | 1.7 | 3.5 | 0.00 | 0.00 | 0.00 | 99 | 1012.8 |
| 20260505033627 | 67 | 45 | 0.0 | 3.5 | 0.00 | 0.00 | 0.00 | 99 | 1012.7 |
| 20260505032606 | 67 | 45 | 1.7 | 3.5 | 0.00 | 0.00 | 0.00 | 99 | 1012.7 |
| 20260505031546 | 67 | 45 | 0.9 | 3.5 | 0.00 | 0.00 | 0.00 | 99 | 1012.6 |
| 20260505031037 | 67 | 45 | 1.7 | 3.5 | 0.00 | 0.00 | 0.00 | 99 | 1012.4 |
| 20260505030527 | 67 | 90 | 1.7 | 5.2 | 0.00 | 0.00 | 0.00 | 99 | 1012.4 |
| 20260505025506 | 67 | 45 | 1.7 | 5.2 | 0.00 | 0.00 | 0.00 | 99 | 1012.3 |
| 20260505024956 | 67 | 68 | 1.7 | 5.2 | 0.00 | 0.00 | 0.00 | 99 | 1012.5 |
| 20260505024446 | 67 | 68 | 0.9 | 5.2 | 0.00 | 0.00 | 0.00 | 98 | 1012.4 |
| 20260505022915 | 67 | 68 | 1.7 | 3.5 | 0.00 | 0.00 | 0.00 | 98 | 1012.3 |
| 20260505022405 | 67 | 90 | 1.7 | 3.5 | 0.00 | 0.00 | 0.00 | 98 | 1012.2 |
| 20260505021855 | 67 | 23 | 0.9 | 5.2 | 0.00 | 0.00 | 0.00 | 98 | 1012.3 |
| 20260505020325 | 67 | 45 | 2.6 | 7.0 | 0.00 | 0.00 | 0.00 | 97 | 1012.2 |
| 20260505015815 | 67 | 23 | 1.7 | 6.1 | 0.00 | 0.00 | 0.00 | 97 | 1012.5 |
| 20260505014755 | 67 | 45 | 2.6 | 5.2 | 0.00 | 0.00 | 0.00 | 97 | 1012.4 |
| 20260505014245 | 67 | 90 | 1.7 | 5.2 | 0.00 | 0.00 | 0.00 | 97 | 1012.6 |
| 20260505013735 | 67 | 45 | 1.7 | 6.1 | 0.00 | 0.00 | 0.00 | 97 | 1012.4 |
| 20260505013224 | 67 | 23 | 3.5 | 6.1 | 0.00 | 0.00 | 0.00 | 97 | 1012.2 |
| 20260505012714 | 67 | 45 | 3.5 | 7.0 | 0.00 | 0.00 | 0.00 | 96 | 1012.4 |
| 20260505012204 | 67 | 23 | 3.5 | 7.0 | 0.00 | 0.00 | 0.00 | 96 | 1012.3 |
| 20260505011654 | 67 | 23 | 2.6 | 7.0 | 0.00 | 0.00 | 0.00 | 96 | 1012.6 |
| 20260505011144 | 67 | 23 | 3.5 | 6.1 | 0.00 | 0.00 | 0.00 | 95 | 1012.6 |
| 20260505010634 | 67 | 68 | 2.6 | 6.1 | 0.00 | 0.00 | 0.00 | 95 | 1012.6 |
| 20260505010124 | 67 | 68 | 1.7 | 6.1 | 0.00 | 0.00 | 0.00 | 95 | 1012.6 |
| 20260505005614 | 67 | 23 | 2.6 | 6.1 | 0.00 | 0.00 | 0.00 | 95 | 1012.7 |
| 20260505005104 | 68 | 23 | 1.7 | 7.0 | 0.00 | 0.00 | 0.00 | 94 | 1012.5 |
| 20260505004554 | 68 | 45 | 1.7 | 7.0 | 0.00 | 0.00 | 0.00 | 94 | 1012.7 |
| 20260505004043 | 68 | 113 | 2.6 | 5.2 | 0.00 | 0.00 | 0.00 | 94 | 1012.5 |
| 20260505003533 | 68 | 113 | 1.7 | 5.2 | 0.00 | 0.00 | 0.00 | 94 | 1012.4 |
| 20260505003027 | 68 | 113 | 1.7 | 5.2 | 0.00 | 0.00 | 0.00 | 94 | 1012.4 |
| 20260505002512 | 68 | 90 | 2.6 | 5.2 | 0.00 | 0.00 | 0.00 | 94 | 1012.5 |
| 20260505001453 | 68 | 90 | 3.5 | 7.0 | 0.00 | 0.00 | 0.00 | 94 | 1012.1 |
| 20260504234352 | 66 | 68 | 1.7 | 6.1 | 0.00 | 0.00 | 0.00 | 95 | 1011.6 |
| 20260504233842 | 66 | 45 | 2.6 | 5.2 | 0.00 | 0.00 | 0.00 | 96 | 1011.7 |
| 20260504233332 | 66 | 90 | 1.7 | 5.2 | 0.00 | 0.00 | 0.00 | 96 | 1011.5 |
| 20260504232312 | 65 | 68 | 1.7 | 3.5 | 0.00 | 0.00 | 0.00 | 96 | 1011.2 |
| 20260504231802 | 65 | 90 | 1.7 | 3.5 | 0.00 | 0.00 | 0.00 | 95 | 1011.3 |
| 20260504231252 | 65 | 45 | 0.9 | 3.5 | 0.00 | 0.00 | 0.00 | 95 | 1011.3 |
| 20260504230742 | 66 | 68 | 1.7 | 3.5 | 0.00 | 0.00 | 0.00 | 94 | 1011.2 |
| 20260504225721 | 66 | 68 | 0.9 | 3.5 | 0.00 | 0.00 | 0.00 | 94 | 1011.2 |
| 20260504224701 | 67 | 90 | 0.9 | 3.5 | 0.00 | 0.00 | 0.00 | 93 | 1011.0 |
| 20260504224151 | 67 | 45 | 1.7 | 3.5 | 0.00 | 0.00 | 0.00 | 92 | 1010.8 |
| 20260504223640 | 67 | 90 | 2.6 | 3.5 | 0.00 | 0.00 | 0.00 | 92 | 1010.8 |
| 20260504223130 | 67 | 90 | 1.7 | 3.5 | 0.00 | 0.00 | 0.00 | 92 | 1010.7 |
| 20260504222620 | 67 | 90 | 2.6 | 3.5 | 0.00 | 0.00 | 0.00 | 91 | 1010.5 |
| 20260504222110 | 68 | 68 | 1.7 | 3.5 | 0.00 | 0.00 | 0.00 | 91 | 1010.6 |